Year,Month,Day,Hour,Minute,Value (Times are PST for temperature in C)
2015,07,14,00,00,16.00
2015,07,14,00,01,16.00
2015,07,14,00,02,16.00
2015,07,14,00,03,15.90
2015,07,14,00,04,15.90
2015,07,14,00,05,15.90
2015,07,14,00,06,15.90
2015,07,14,00,07,15.90
2015,07,14,00,08,15.90
2015,07,14,00,09,15.90
2015,07,14,00,10,15.90
2015,07,14,00,11,15.90
2015,07,14,00,12,15.80
2015,07,14,00,13,15.80
2015,07,14,00,14,15.80
2015,07,14,00,15,15.80
2015,07,14,00,16,15.90
2015,07,14,00,17,15.90
2015,07,14,00,18,15.90
2015,07,14,00,19,15.90
2015,07,14,00,20,15.80
2015,07,14,00,21,15.80
2015,07,14,00,22,15.80
2015,07,14,00,23,15.80
2015,07,14,00,24,15.80
2015,07,14,00,25,15.90
2015,07,14,00,26,15.90
2015,07,14,00,27,15.90
2015,07,14,00,28,15.90
2015,07,14,00,29,15.90
2015,07,14,00,30,15.90
2015,07,14,00,31,15.90
2015,07,14,00,32,15.80
2015,07,14,00,33,15.80
2015,07,14,00,34,15.70
2015,07,14,00,35,15.70
2015,07,14,00,36,15.70
2015,07,14,00,37,15.60
2015,07,14,00,38,15.50
2015,07,14,00,39,15.40
2015,07,14,00,40,15.30
2015,07,14,00,41,15.20
2015,07,14,00,42,15.20
2015,07,14,00,43,15.20
2015,07,14,00,44,15.20
2015,07,14,00,45,15.20
2015,07,14,00,46,15.20
2015,07,14,00,47,15.20
2015,07,14,00,48,15.20
2015,07,14,00,49,15.20
2015,07,14,00,50,15.20
2015,07,14,00,51,15.20
2015,07,14,00,52,15.20
2015,07,14,00,53,15.20
2015,07,14,00,54,15.20
2015,07,14,00,55,15.20
2015,07,14,00,56,15.20
2015,07,14,00,57,15.20
2015,07,14,00,58,15.20
2015,07,14,00,59,15.20
2015,07,14,01,00,15.20
2015,07,14,01,01,15.20
2015,07,14,01,02,15.30
2015,07,14,01,03,15.30
2015,07,14,01,04,15.30
2015,07,14,01,05,15.30
2015,07,14,01,06,15.30
2015,07,14,01,07,15.30
2015,07,14,01,08,15.30
2015,07,14,01,09,15.40
2015,07,14,01,10,15.40
2015,07,14,01,11,15.40
2015,07,14,01,12,15.40
2015,07,14,01,13,15.40
2015,07,14,01,14,15.40
2015,07,14,01,15,15.40
2015,07,14,01,16,15.40
2015,07,14,01,17,15.40
2015,07,14,01,18,15.40
2015,07,14,01,19,15.40
2015,07,14,01,20,15.40
2015,07,14,01,21,15.40
2015,07,14,01,22,15.40
2015,07,14,01,23,15.40
2015,07,14,01,24,15.40
2015,07,14,01,25,15.40
2015,07,14,01,26,15.40
2015,07,14,01,27,15.30
2015,07,14,01,28,15.30
2015,07,14,01,29,15.30
2015,07,14,01,30,15.30
2015,07,14,01,31,15.30
2015,07,14,01,32,15.30
2015,07,14,01,33,15.30
2015,07,14,01,34,15.30
2015,07,14,01,35,15.30
2015,07,14,01,36,15.30
2015,07,14,01,37,15.30
2015,07,14,01,38,15.30
2015,07,14,01,39,15.20
2015,07,14,01,40,15.20
2015,07,14,01,41,15.20
2015,07,14,01,42,15.20
2015,07,14,01,43,15.20
2015,07,14,01,44,15.20
2015,07,14,01,45,15.20
2015,07,14,01,46,15.20
2015,07,14,01,47,15.20
2015,07,14,01,48,15.20
2015,07,14,01,49,15.20
2015,07,14,01,50,15.20
2015,07,14,01,51,15.20
2015,07,14,01,52,15.20
2015,07,14,01,53,15.20
2015,07,14,01,54,15.20
2015,07,14,01,55,15.20
2015,07,14,01,56,15.20
2015,07,14,01,57,15.30
2015,07,14,01,58,15.30
2015,07,14,01,59,15.30
2015,07,14,02,00,15.30
2015,07,14,02,01,15.30
2015,07,14,02,02,15.30
2015,07,14,02,03,15.30
2015,07,14,02,04,15.30
2015,07,14,02,05,15.30
2015,07,14,02,06,15.30
2015,07,14,02,07,15.30
2015,07,14,02,08,15.30
2015,07,14,02,09,15.30
2015,07,14,02,10,15.30
2015,07,14,02,11,15.30
2015,07,14,02,12,15.30
2015,07,14,02,13,15.30
2015,07,14,02,14,15.30
2015,07,14,02,15,15.30
2015,07,14,02,16,15.30
2015,07,14,02,17,15.30
2015,07,14,02,18,15.30
2015,07,14,02,19,15.30
2015,07,14,02,20,15.30
2015,07,14,02,21,15.30
2015,07,14,02,22,15.30
2015,07,14,02,23,15.30
2015,07,14,02,24,15.30
2015,07,14,02,25,15.30
2015,07,14,02,26,15.30
2015,07,14,02,27,15.30
2015,07,14,02,28,15.30
2015,07,14,02,29,15.30
2015,07,14,02,30,15.30
2015,07,14,02,31,15.30
2015,07,14,02,32,15.30
2015,07,14,02,33,15.30
2015,07,14,02,34,15.30
2015,07,14,02,35,15.30
2015,07,14,02,36,15.30
2015,07,14,02,37,15.30
2015,07,14,02,38,15.30
2015,07,14,02,39,15.30
2015,07,14,02,40,15.30
2015,07,14,02,41,15.30
2015,07,14,02,42,15.30
2015,07,14,02,43,15.30
2015,07,14,02,44,15.30
2015,07,14,02,45,15.30
2015,07,14,02,46,15.30
2015,07,14,02,47,15.30
2015,07,14,02,48,15.30
2015,07,14,02,49,15.30
2015,07,14,02,50,15.20
2015,07,14,02,51,15.20
2015,07,14,02,52,15.20
2015,07,14,02,53,15.20
2015,07,14,02,54,15.20
2015,07,14,02,55,15.20
2015,07,14,02,56,15.20
2015,07,14,02,57,15.20
2015,07,14,02,58,15.20
2015,07,14,02,59,15.20
2015,07,14,03,00,15.20
2015,07,14,03,01,15.20
2015,07,14,03,02,15.20
2015,07,14,03,03,15.20
2015,07,14,03,04,15.20
2015,07,14,03,05,15.20
2015,07,14,03,06,15.20
2015,07,14,03,07,15.20
2015,07,14,03,08,15.20
2015,07,14,03,09,15.10
2015,07,14,03,10,15.10
2015,07,14,03,11,15.10
2015,07,14,03,12,15.10
2015,07,14,03,13,15.10
2015,07,14,03,14,15.10
2015,07,14,03,15,15.10
2015,07,14,03,16,15.10
2015,07,14,03,17,15.10
2015,07,14,03,18,15.10
2015,07,14,03,19,15.00
2015,07,14,03,20,15.00
2015,07,14,03,21,15.00
2015,07,14,03,22,15.00
2015,07,14,03,23,15.00
2015,07,14,03,24,15.00
2015,07,14,03,25,15.00
2015,07,14,03,26,15.00
2015,07,14,03,27,14.90
2015,07,14,03,28,14.90
2015,07,14,03,29,14.90
2015,07,14,03,30,14.90
2015,07,14,03,31,14.90
2015,07,14,03,32,14.90
2015,07,14,03,33,14.90
2015,07,14,03,34,14.90
2015,07,14,03,35,14.90
2015,07,14,03,36,14.80
2015,07,14,03,37,14.80
2015,07,14,03,38,14.80
2015,07,14,03,39,14.80
2015,07,14,03,40,14.80
2015,07,14,03,41,14.80
2015,07,14,03,42,14.80
2015,07,14,03,43,14.80
2015,07,14,03,44,14.70
2015,07,14,03,45,14.70
2015,07,14,03,46,14.70
2015,07,14,03,47,14.70
2015,07,14,03,48,14.70
2015,07,14,03,49,14.60
2015,07,14,03,50,14.60
2015,07,14,03,51,14.60
2015,07,14,03,52,14.60
2015,07,14,03,53,14.50
2015,07,14,03,54,14.50
2015,07,14,03,55,14.50
2015,07,14,03,56,14.50
2015,07,14,03,57,14.50
2015,07,14,03,58,14.50
2015,07,14,03,59,14.50
2015,07,14,04,00,14.50
2015,07,14,04,01,14.50
2015,07,14,04,02,14.50
2015,07,14,04,03,14.40
2015,07,14,04,04,14.40
2015,07,14,04,05,14.40
2015,07,14,04,06,14.40
2015,07,14,04,07,14.40
2015,07,14,04,08,14.40
2015,07,14,04,09,14.40
2015,07,14,04,10,14.40
2015,07,14,04,11,14.40
2015,07,14,04,12,14.40
2015,07,14,04,13,14.40
2015,07,14,04,14,14.40
2015,07,14,04,15,14.40
2015,07,14,04,16,14.40
2015,07,14,04,17,14.30
2015,07,14,04,18,14.30
2015,07,14,04,19,14.30
2015,07,14,04,20,14.30
2015,07,14,04,21,14.30
2015,07,14,04,22,14.30
2015,07,14,04,23,14.30
2015,07,14,04,24,14.30
2015,07,14,04,25,14.30
2015,07,14,04,26,14.30
2015,07,14,04,27,14.30
2015,07,14,04,28,14.30
2015,07,14,04,29,14.30
2015,07,14,04,30,14.30
2015,07,14,04,31,14.30
2015,07,14,04,32,14.30
2015,07,14,04,33,14.20
2015,07,14,04,34,14.20
2015,07,14,04,35,14.20
2015,07,14,04,36,14.20
2015,07,14,04,37,14.20
2015,07,14,04,38,14.20
2015,07,14,04,39,14.20
2015,07,14,04,40,14.20
2015,07,14,04,41,14.20
2015,07,14,04,42,14.20
2015,07,14,04,43,14.20
2015,07,14,04,44,14.20
2015,07,14,04,45,14.20
2015,07,14,04,46,14.20
2015,07,14,04,47,14.20
2015,07,14,04,48,14.20
2015,07,14,04,49,14.10
2015,07,14,04,50,14.10
2015,07,14,04,51,14.10
2015,07,14,04,52,14.10
2015,07,14,04,53,14.10
2015,07,14,04,54,14.10
2015,07,14,04,55,14.10
2015,07,14,04,56,14.00
2015,07,14,04,57,14.00
2015,07,14,04,58,14.00
2015,07,14,04,59,13.90
2015,07,14,05,00,13.90
2015,07,14,05,01,13.90
2015,07,14,05,02,13.80
2015,07,14,05,03,13.80
2015,07,14,05,04,13.80
2015,07,14,05,05,13.80
2015,07,14,05,06,13.80
2015,07,14,05,07,13.80
2015,07,14,05,08,13.70
2015,07,14,05,09,13.70
2015,07,14,05,10,13.70
2015,07,14,05,11,13.70
2015,07,14,05,12,13.70
2015,07,14,05,13,13.70
2015,07,14,05,14,13.60
2015,07,14,05,15,13.60
2015,07,14,05,16,13.60
2015,07,14,05,17,13.60
2015,07,14,05,18,13.60
2015,07,14,05,19,13.60
2015,07,14,05,20,13.60
2015,07,14,05,21,13.60
2015,07,14,05,22,13.60
2015,07,14,05,23,13.60
2015,07,14,05,24,13.60
2015,07,14,05,25,13.60
2015,07,14,05,26,13.60
2015,07,14,05,27,13.60
2015,07,14,05,28,13.60
2015,07,14,05,29,13.60
2015,07,14,05,30,13.60
2015,07,14,05,31,13.60
2015,07,14,05,32,13.60
2015,07,14,05,33,13.70
2015,07,14,05,34,13.70
2015,07,14,05,35,13.70
2015,07,14,05,36,13.70
2015,07,14,05,37,13.70
2015,07,14,05,38,13.70
2015,07,14,05,39,13.70
2015,07,14,05,40,13.70
2015,07,14,05,41,13.70
2015,07,14,05,42,13.70
2015,07,14,05,43,13.70
2015,07,14,05,44,13.70
2015,07,14,05,45,13.70
2015,07,14,05,46,13.70
2015,07,14,05,47,13.70
2015,07,14,05,48,13.70
2015,07,14,05,49,13.70
2015,07,14,05,50,13.70
2015,07,14,05,51,13.70
2015,07,14,05,52,13.80
2015,07,14,05,53,13.80
2015,07,14,05,54,13.80
2015,07,14,05,55,13.80
2015,07,14,05,56,13.80
2015,07,14,05,57,13.80
2015,07,14,05,58,13.80
2015,07,14,05,59,13.80
2015,07,14,06,00,13.80
2015,07,14,06,01,13.80
2015,07,14,06,02,13.90
2015,07,14,06,03,13.90
2015,07,14,06,04,13.90
2015,07,14,06,05,13.90
2015,07,14,06,06,14.00
2015,07,14,06,07,14.00
2015,07,14,06,08,14.00
2015,07,14,06,09,14.00
2015,07,14,06,10,14.10
2015,07,14,06,11,14.10
2015,07,14,06,12,14.10
2015,07,14,06,13,14.10
2015,07,14,06,14,14.10
2015,07,14,06,15,14.10
2015,07,14,06,16,14.20
2015,07,14,06,17,14.20
2015,07,14,06,18,14.20
2015,07,14,06,19,14.20
2015,07,14,06,20,14.20
2015,07,14,06,21,14.20
2015,07,14,06,22,14.20
2015,07,14,06,23,14.30
2015,07,14,06,24,14.30
2015,07,14,06,25,14.30
2015,07,14,06,26,14.30
2015,07,14,06,27,14.30
2015,07,14,06,28,14.30
2015,07,14,06,29,14.40
2015,07,14,06,30,14.40
2015,07,14,06,31,14.40
2015,07,14,06,32,14.40
2015,07,14,06,33,14.50
2015,07,14,06,34,14.50
2015,07,14,06,35,14.50
2015,07,14,06,36,14.60
2015,07,14,06,37,14.60
2015,07,14,06,38,14.60
2015,07,14,06,39,14.60
2015,07,14,06,40,14.60
2015,07,14,06,41,14.60
2015,07,14,06,42,14.70
2015,07,14,06,43,14.70
2015,07,14,06,44,14.70
2015,07,14,06,45,14.70
2015,07,14,06,46,14.70
2015,07,14,06,47,14.70
2015,07,14,06,48,14.70
2015,07,14,06,49,14.70
2015,07,14,06,50,14.70
2015,07,14,06,51,14.70
2015,07,14,06,52,14.80
2015,07,14,06,53,14.80
2015,07,14,06,54,14.80
2015,07,14,06,55,14.80
2015,07,14,06,56,14.80
2015,07,14,06,57,14.90
2015,07,14,06,58,15.00
2015,07,14,06,59,15.00
2015,07,14,07,00,15.10
2015,07,14,07,01,15.10
2015,07,14,07,02,15.20
2015,07,14,07,03,15.30
2015,07,14,07,04,15.30
2015,07,14,07,05,15.40
2015,07,14,07,06,15.50
2015,07,14,07,07,15.50
2015,07,14,07,08,15.60
2015,07,14,07,09,15.70
2015,07,14,07,10,15.80
2015,07,14,07,11,15.80
2015,07,14,07,12,15.90
2015,07,14,07,13,15.90
2015,07,14,07,14,16.00
2015,07,14,07,15,16.10
2015,07,14,07,16,16.20
2015,07,14,07,17,16.20
2015,07,14,07,18,16.30
2015,07,14,07,19,16.30
2015,07,14,07,20,16.40
2015,07,14,07,21,16.50
2015,07,14,07,22,16.50
2015,07,14,07,23,16.60
2015,07,14,07,24,16.60
2015,07,14,07,25,16.60
2015,07,14,07,26,16.60
2015,07,14,07,27,16.70
2015,07,14,07,28,16.70
2015,07,14,07,29,16.70
2015,07,14,07,30,16.70
2015,07,14,07,31,16.70
2015,07,14,07,32,16.80
2015,07,14,07,33,16.80
2015,07,14,07,34,16.80
2015,07,14,07,35,16.80
2015,07,14,07,36,16.90
2015,07,14,07,37,16.90
2015,07,14,07,38,16.90
2015,07,14,07,39,17.00
2015,07,14,07,40,17.00
2015,07,14,07,41,17.10
2015,07,14,07,42,17.10
2015,07,14,07,43,17.10
2015,07,14,07,44,17.10
2015,07,14,07,45,17.10
2015,07,14,07,46,17.10
2015,07,14,07,47,17.10
2015,07,14,07,48,17.20
2015,07,14,07,49,17.20
2015,07,14,07,50,17.20
2015,07,14,07,51,17.20
2015,07,14,07,52,17.20
2015,07,14,07,53,17.30
2015,07,14,07,54,17.30
2015,07,14,07,55,17.30
2015,07,14,07,56,17.40
2015,07,14,07,57,17.40
2015,07,14,07,58,17.40
2015,07,14,07,59,17.50
2015,07,14,08,00,17.50
2015,07,14,08,01,17.50
2015,07,14,08,02,17.50
2015,07,14,08,03,17.60
2015,07,14,08,04,17.60
2015,07,14,08,05,17.60
2015,07,14,08,06,17.60
2015,07,14,08,07,17.70
2015,07,14,08,08,17.70
2015,07,14,08,09,17.80
2015,07,14,08,10,17.90
2015,07,14,08,11,18.00
2015,07,14,08,12,18.00
2015,07,14,08,13,18.10
2015,07,14,08,14,18.20
2015,07,14,08,15,18.20
2015,07,14,08,16,18.20
2015,07,14,08,17,18.30
2015,07,14,08,18,18.30
2015,07,14,08,19,18.30
2015,07,14,08,20,18.30
2015,07,14,08,21,18.30
2015,07,14,08,22,18.40
2015,07,14,08,23,18.40
2015,07,14,08,24,18.40
2015,07,14,08,25,18.40
2015,07,14,08,26,18.50
2015,07,14,08,27,18.50
2015,07,14,08,28,18.50
2015,07,14,08,29,18.50
2015,07,14,08,30,18.50
2015,07,14,08,31,18.50
2015,07,14,08,32,18.60
2015,07,14,08,33,18.60
2015,07,14,08,34,18.60
2015,07,14,08,35,18.60
2015,07,14,08,36,18.70
2015,07,14,08,37,18.70
2015,07,14,08,38,18.70
2015,07,14,08,39,18.70
2015,07,14,08,40,18.70
2015,07,14,08,41,18.70
2015,07,14,08,42,18.70
2015,07,14,08,43,18.70
2015,07,14,08,44,18.70
2015,07,14,08,45,18.70
2015,07,14,08,46,18.70
2015,07,14,08,47,18.70
2015,07,14,08,48,18.70
2015,07,14,08,49,18.70
2015,07,14,08,50,18.70
2015,07,14,08,51,18.70
2015,07,14,08,52,18.80
2015,07,14,08,53,18.80
2015,07,14,08,54,18.80
2015,07,14,08,55,18.80
2015,07,14,08,56,18.90
2015,07,14,08,57,18.90
2015,07,14,08,58,19.00
2015,07,14,08,59,19.00
2015,07,14,09,00,18.90
2015,07,14,09,01,18.90
2015,07,14,09,02,18.80
2015,07,14,09,03,18.70
2015,07,14,09,04,18.70
2015,07,14,09,05,18.60
2015,07,14,09,06,18.60
2015,07,14,09,07,18.60
2015,07,14,09,08,18.60
2015,07,14,09,09,18.60
2015,07,14,09,10,18.60
2015,07,14,09,11,18.60
2015,07,14,09,12,18.60
2015,07,14,09,13,18.60
2015,07,14,09,14,18.60
2015,07,14,09,15,18.60
2015,07,14,09,16,18.60
2015,07,14,09,17,18.60
2015,07,14,09,18,18.70
2015,07,14,09,19,18.70
2015,07,14,09,20,18.70
2015,07,14,09,21,18.70
2015,07,14,09,22,18.60
2015,07,14,09,23,18.60
2015,07,14,09,24,18.60
2015,07,14,09,25,18.60
2015,07,14,09,26,18.60
2015,07,14,09,27,18.60
2015,07,14,09,28,18.60
2015,07,14,09,29,18.70
2015,07,14,09,30,18.70
2015,07,14,09,31,18.70
2015,07,14,09,32,18.70
2015,07,14,09,33,18.70
2015,07,14,09,34,18.70
2015,07,14,09,35,18.70
2015,07,14,09,36,18.80
2015,07,14,09,37,18.80
2015,07,14,09,38,18.80
2015,07,14,09,39,18.80
2015,07,14,09,40,18.80
2015,07,14,09,41,18.80
2015,07,14,09,42,18.80
2015,07,14,09,43,18.90
2015,07,14,09,44,18.90
2015,07,14,09,45,19.00
2015,07,14,09,46,19.00
2015,07,14,09,47,19.10
2015,07,14,09,48,19.10
2015,07,14,09,49,19.10
2015,07,14,09,50,19.10
2015,07,14,09,51,19.10
2015,07,14,09,52,19.20
2015,07,14,09,53,19.20
2015,07,14,09,54,19.20
2015,07,14,09,55,19.20
2015,07,14,09,56,19.20
2015,07,14,09,57,19.20
2015,07,14,09,58,19.20
2015,07,14,09,59,19.20
2015,07,14,10,00,19.20
2015,07,14,10,01,19.20
2015,07,14,10,02,19.10
2015,07,14,10,03,19.10
2015,07,14,10,04,19.10
2015,07,14,10,05,19.10
2015,07,14,10,06,19.00
2015,07,14,10,07,19.00
2015,07,14,10,08,19.00
2015,07,14,10,09,19.00
2015,07,14,10,10,19.10
2015,07,14,10,11,19.10
2015,07,14,10,12,19.00
2015,07,14,10,13,19.00
2015,07,14,10,14,18.90
2015,07,14,10,15,18.90
2015,07,14,10,16,18.90
2015,07,14,10,17,18.90
2015,07,14,10,18,18.90
2015,07,14,10,19,18.90
2015,07,14,10,20,18.90
2015,07,14,10,21,18.90
2015,07,14,10,22,18.90
2015,07,14,10,23,19.00
2015,07,14,10,24,19.00
2015,07,14,10,25,19.00
2015,07,14,10,26,18.90
2015,07,14,10,27,18.90
2015,07,14,10,28,19.00
2015,07,14,10,29,19.00
2015,07,14,10,30,19.10
2015,07,14,10,31,19.10
2015,07,14,10,32,19.20
2015,07,14,10,33,19.20
2015,07,14,10,34,19.30
2015,07,14,10,35,19.30
2015,07,14,10,36,19.30
2015,07,14,10,37,19.20
2015,07,14,10,38,19.20
2015,07,14,10,39,19.10
2015,07,14,10,40,19.20
2015,07,14,10,41,19.20
2015,07,14,10,42,19.10
2015,07,14,10,43,19.10
2015,07,14,10,44,19.10
2015,07,14,10,45,19.10
2015,07,14,10,46,19.00
2015,07,14,10,47,19.00
2015,07,14,10,48,19.00
2015,07,14,10,49,19.10
2015,07,14,10,50,19.10
2015,07,14,10,51,19.10
2015,07,14,10,52,19.10
2015,07,14,10,53,19.20
2015,07,14,10,54,19.20
2015,07,14,10,55,19.20
2015,07,14,10,56,19.20
2015,07,14,10,57,19.20
2015,07,14,10,58,19.30
2015,07,14,10,59,19.30
2015,07,14,11,00,19.40
2015,07,14,11,01,19.40
2015,07,14,11,02,19.50
2015,07,14,11,03,19.50
2015,07,14,11,04,19.60
2015,07,14,11,05,19.60
2015,07,14,11,06,19.60
2015,07,14,11,07,19.70
2015,07,14,11,08,19.70
2015,07,14,11,09,19.80
2015,07,14,11,10,19.80
2015,07,14,11,11,19.80
2015,07,14,11,12,19.90
2015,07,14,11,13,19.90
2015,07,14,11,14,19.90
2015,07,14,11,15,19.80
2015,07,14,11,16,19.80
2015,07,14,11,17,19.70
2015,07,14,11,18,19.70
2015,07,14,11,19,19.70
2015,07,14,11,20,19.60
2015,07,14,11,21,19.60
2015,07,14,11,22,19.60
2015,07,14,11,23,19.60
2015,07,14,11,24,19.60
2015,07,14,11,25,19.60
2015,07,14,11,26,19.50
2015,07,14,11,27,19.50
2015,07,14,11,28,19.40
2015,07,14,11,29,19.40
2015,07,14,11,30,19.30
2015,07,14,11,31,19.30
2015,07,14,11,32,19.30
2015,07,14,11,33,19.30
2015,07,14,11,34,19.30
2015,07,14,11,35,19.30
2015,07,14,11,36,19.30
2015,07,14,11,37,19.40
2015,07,14,11,38,19.40
2015,07,14,11,39,19.50
2015,07,14,11,40,19.50
2015,07,14,11,41,19.40
2015,07,14,11,42,19.50
2015,07,14,11,43,19.50
2015,07,14,11,44,19.50
2015,07,14,11,45,19.50
2015,07,14,11,46,19.50
2015,07,14,11,47,19.50
2015,07,14,11,48,19.50
2015,07,14,11,49,19.50
2015,07,14,11,50,19.50
2015,07,14,11,51,19.60
2015,07,14,11,52,19.50
2015,07,14,11,53,19.50
2015,07,14,11,54,19.60
2015,07,14,11,55,19.60
2015,07,14,11,56,19.70
2015,07,14,11,57,19.70
2015,07,14,11,58,19.70
2015,07,14,11,59,19.70
2015,07,14,12,00,19.80
2015,07,14,12,01,19.80
2015,07,14,12,02,19.80
2015,07,14,12,03,19.90
2015,07,14,12,04,19.90
2015,07,14,12,05,19.90
2015,07,14,12,06,20.00
2015,07,14,12,07,20.00
2015,07,14,12,08,20.00
2015,07,14,12,09,20.10
2015,07,14,12,10,20.10
2015,07,14,12,11,20.20
2015,07,14,12,12,20.30
2015,07,14,12,13,20.40
2015,07,14,12,14,20.40
2015,07,14,12,15,20.40
2015,07,14,12,16,20.40
2015,07,14,12,17,20.40
2015,07,14,12,18,20.30
2015,07,14,12,19,20.40
2015,07,14,12,20,20.50
2015,07,14,12,21,20.60
2015,07,14,12,22,20.60
2015,07,14,12,23,20.70
2015,07,14,12,24,20.70
2015,07,14,12,25,20.60
2015,07,14,12,26,20.70
2015,07,14,12,27,20.70
2015,07,14,12,28,20.70
2015,07,14,12,29,20.70
2015,07,14,12,30,20.70
2015,07,14,12,31,20.70
2015,07,14,12,32,20.60
2015,07,14,12,33,20.60
2015,07,14,12,34,20.50
2015,07,14,12,35,20.50
2015,07,14,12,36,20.40
2015,07,14,12,37,20.40
2015,07,14,12,38,20.40
2015,07,14,12,39,20.40
2015,07,14,12,40,20.30
2015,07,14,12,41,20.30
2015,07,14,12,42,20.30
2015,07,14,12,43,20.20
2015,07,14,12,44,20.20
2015,07,14,12,45,20.10
2015,07,14,12,46,20.10
2015,07,14,12,47,20.00
2015,07,14,12,48,20.00
2015,07,14,12,49,19.90
2015,07,14,12,50,20.00
2015,07,14,12,51,20.00
2015,07,14,12,52,20.10
2015,07,14,12,53,20.10
2015,07,14,12,54,20.10
2015,07,14,12,55,20.00
2015,07,14,12,56,20.10
2015,07,14,12,57,20.10
2015,07,14,12,58,20.10
2015,07,14,12,59,20.20
2015,07,14,13,00,20.20
2015,07,14,13,01,20.20
2015,07,14,13,02,20.20
2015,07,14,13,03,20.20
2015,07,14,13,04,20.10
2015,07,14,13,05,20.20
2015,07,14,13,06,20.20
2015,07,14,13,07,20.20
2015,07,14,13,08,20.20
2015,07,14,13,09,20.20
2015,07,14,13,10,20.20
2015,07,14,13,11,20.20
2015,07,14,13,12,20.20
2015,07,14,13,13,20.20
2015,07,14,13,14,20.20
2015,07,14,13,15,20.10
2015,07,14,13,16,20.10
2015,07,14,13,17,20.10
2015,07,14,13,18,20.10
2015,07,14,13,19,20.10
2015,07,14,13,20,20.10
2015,07,14,13,21,20.10
2015,07,14,13,22,20.10
2015,07,14,13,23,20.10
2015,07,14,13,24,20.10
2015,07,14,13,25,20.10
2015,07,14,13,26,20.10
2015,07,14,13,27,20.20
2015,07,14,13,28,20.20
2015,07,14,13,29,20.20
2015,07,14,13,30,20.30
2015,07,14,13,31,20.30
2015,07,14,13,32,20.40
2015,07,14,13,33,20.30
2015,07,14,13,34,20.40
2015,07,14,13,35,20.40
2015,07,14,13,36,20.30
2015,07,14,13,37,20.20
2015,07,14,13,38,20.20
2015,07,14,13,39,20.10
2015,07,14,13,40,20.00
2015,07,14,13,41,20.00
2015,07,14,13,42,20.10
2015,07,14,13,43,20.20
2015,07,14,13,44,20.40
2015,07,14,13,45,20.60
2015,07,14,13,46,20.80
2015,07,14,13,47,21.00
2015,07,14,13,48,21.10
2015,07,14,13,49,21.30
2015,07,14,13,50,21.50
2015,07,14,13,51,21.60
2015,07,14,13,52,21.60
2015,07,14,13,53,21.60
2015,07,14,13,54,21.60
2015,07,14,13,55,21.70
2015,07,14,13,56,21.70
2015,07,14,13,57,21.80
2015,07,14,13,58,21.80
2015,07,14,13,59,21.70
2015,07,14,14,00,21.70
2015,07,14,14,01,21.70
2015,07,14,14,02,21.80
2015,07,14,14,03,21.80
2015,07,14,14,04,21.90
2015,07,14,14,05,21.90
2015,07,14,14,06,22.00
2015,07,14,14,07,22.10
2015,07,14,14,08,22.20
2015,07,14,14,09,22.30
2015,07,14,14,10,22.30
2015,07,14,14,11,22.40
2015,07,14,14,12,22.40
2015,07,14,14,13,22.50
2015,07,14,14,14,22.50
2015,07,14,14,15,22.50
2015,07,14,14,16,22.60
2015,07,14,14,17,22.60
2015,07,14,14,18,22.60
2015,07,14,14,19,22.60
2015,07,14,14,20,22.60
2015,07,14,14,21,22.60
2015,07,14,14,22,22.60
2015,07,14,14,23,22.70
2015,07,14,14,24,22.70
2015,07,14,14,25,22.70
2015,07,14,14,26,22.70
2015,07,14,14,27,22.70
2015,07,14,14,28,22.80
2015,07,14,14,29,22.90
2015,07,14,14,30,22.90
2015,07,14,14,31,23.00
2015,07,14,14,32,23.00
2015,07,14,14,33,23.00
2015,07,14,14,34,23.00
2015,07,14,14,35,22.90
2015,07,14,14,36,22.90
2015,07,14,14,37,22.90
2015,07,14,14,38,22.90
2015,07,14,14,39,22.90
2015,07,14,14,40,22.90
2015,07,14,14,41,22.90
2015,07,14,14,42,22.90
2015,07,14,14,43,22.80
2015,07,14,14,44,22.80
2015,07,14,14,45,22.80
2015,07,14,14,46,22.70
2015,07,14,14,47,22.70
2015,07,14,14,48,22.70
2015,07,14,14,49,22.70
2015,07,14,14,50,22.70
2015,07,14,14,51,22.70
2015,07,14,14,52,22.80
2015,07,14,14,53,22.80
2015,07,14,14,54,22.80
2015,07,14,14,55,22.80
2015,07,14,14,56,22.80
2015,07,14,14,57,22.80
2015,07,14,14,58,22.90
2015,07,14,14,59,23.00
2015,07,14,15,00,23.10
2015,07,14,15,01,23.20
2015,07,14,15,02,23.20
2015,07,14,15,03,23.10
2015,07,14,15,04,23.10
2015,07,14,15,05,23.00
2015,07,14,15,06,23.00
2015,07,14,15,07,22.90
2015,07,14,15,08,22.90
2015,07,14,15,09,23.00
2015,07,14,15,10,23.10
2015,07,14,15,11,23.10
2015,07,14,15,12,23.20
2015,07,14,15,13,23.30
2015,07,14,15,14,23.30
2015,07,14,15,15,23.30
2015,07,14,15,16,23.20
2015,07,14,15,17,23.20
2015,07,14,15,18,23.10
2015,07,14,15,19,23.10
2015,07,14,15,20,23.10
2015,07,14,15,21,23.10
2015,07,14,15,22,23.10
2015,07,14,15,23,23.00
2015,07,14,15,24,22.90
2015,07,14,15,25,22.90
2015,07,14,15,26,23.00
2015,07,14,15,27,23.00
2015,07,14,15,28,22.90
2015,07,14,15,29,22.90
2015,07,14,15,30,23.00
2015,07,14,15,31,23.10
2015,07,14,15,32,23.20
2015,07,14,15,33,23.20
2015,07,14,15,34,23.20
2015,07,14,15,35,23.30
2015,07,14,15,36,23.30
2015,07,14,15,37,23.40
2015,07,14,15,38,23.40
2015,07,14,15,39,23.50
2015,07,14,15,40,23.60
2015,07,14,15,41,23.60
2015,07,14,15,42,23.60
2015,07,14,15,43,23.60
2015,07,14,15,44,23.50
2015,07,14,15,45,23.60
2015,07,14,15,46,23.60
2015,07,14,15,47,23.60
2015,07,14,15,48,23.60
2015,07,14,15,49,23.50
2015,07,14,15,50,23.40
2015,07,14,15,51,23.30
2015,07,14,15,52,23.30
2015,07,14,15,53,23.20
2015,07,14,15,54,23.20
2015,07,14,15,55,23.20
2015,07,14,15,56,23.20
2015,07,14,15,57,23.20
2015,07,14,15,58,23.20
2015,07,14,15,59,23.30
2015,07,14,16,00,23.30
2015,07,14,16,01,23.30
2015,07,14,16,02,23.40
2015,07,14,16,03,23.40
2015,07,14,16,04,23.40
2015,07,14,16,05,23.50
2015,07,14,16,06,23.50
2015,07,14,16,07,23.50
2015,07,14,16,08,23.60
2015,07,14,16,09,23.60
2015,07,14,16,10,23.60
2015,07,14,16,11,23.60
2015,07,14,16,12,23.60
2015,07,14,16,13,23.50
2015,07,14,16,14,23.40
2015,07,14,16,15,23.40
2015,07,14,16,16,23.40
2015,07,14,16,17,23.50
2015,07,14,16,18,23.60
2015,07,14,16,19,23.60
2015,07,14,16,20,23.80
2015,07,14,16,21,23.90
2015,07,14,16,22,23.90
2015,07,14,16,23,24.00
2015,07,14,16,24,24.00
2015,07,14,16,25,24.10
2015,07,14,16,26,24.20
2015,07,14,16,27,24.20
2015,07,14,16,28,24.20
2015,07,14,16,29,24.20
2015,07,14,16,30,24.20
2015,07,14,16,31,24.20
2015,07,14,16,32,24.20
2015,07,14,16,33,24.30
2015,07,14,16,34,24.30
2015,07,14,16,35,24.20
2015,07,14,16,36,24.20
2015,07,14,16,37,24.30
2015,07,14,16,38,24.20
2015,07,14,16,39,24.20
2015,07,14,16,40,24.20
2015,07,14,16,41,24.20
2015,07,14,16,42,24.20
2015,07,14,16,43,24.20
2015,07,14,16,44,24.20
2015,07,14,16,45,24.20
2015,07,14,16,46,24.30
2015,07,14,16,47,24.30
2015,07,14,16,48,24.20
2015,07,14,16,49,24.20
2015,07,14,16,50,24.20
2015,07,14,16,51,24.20
2015,07,14,16,52,24.20
2015,07,14,16,53,24.20
2015,07,14,16,54,24.20
2015,07,14,16,55,24.30
2015,07,14,16,56,24.20
2015,07,14,16,57,24.20
2015,07,14,16,58,24.10
2015,07,14,16,59,24.10
2015,07,14,17,00,24.10
2015,07,14,17,01,24.10
2015,07,14,17,02,24.10
2015,07,14,17,03,24.10
2015,07,14,17,04,24.10
2015,07,14,17,05,24.10
2015,07,14,17,06,24.10
2015,07,14,17,07,24.20
2015,07,14,17,08,24.20
2015,07,14,17,09,24.20
2015,07,14,17,10,24.30
2015,07,14,17,11,24.30
2015,07,14,17,12,24.30
2015,07,14,17,13,24.30
2015,07,14,17,14,24.30
2015,07,14,17,15,24.30
2015,07,14,17,16,24.30
2015,07,14,17,17,24.30
2015,07,14,17,18,24.30
2015,07,14,17,19,24.30